Location: Doverdale
(52.2833°N, 2.2000°W)
Time: 03:04:14
(UTC+00:00)

Cosmos 44 Rocket - Pass Details

Date: 29 October 2020
Orbit: 642 x 748 km, 65.1° (Epoch: 24 November)

Event Time Altitude Azimuth Distance (km) Brightness Sun altitude
Rises 18:13:16 0° 179° (S) 2,989 6.6 -14.0°
Reaches altitude 10° 18:15:56 10° 165° (SSE) 2,099 5.7 -14.4°
Maximum altitude 18:19:37 23° 114° (ESE) 1,459 4.4 -15.0°
Enters shadow 18:19:57 22° 107° (ESE) 1,468 4.4 -15.0°
